KAL1011 RKSI-RKJY

Flight info

Callsign KAL1011
Flight time 0h 36m
Altitude 25000
Route RKSI/16L N0389F250 BOPT2H BOPTA Z51 BEDES Y711 ELPOS DCT TEDAN TEDA1D RKJY/17
Aircraft B736/M-SCDFGHIRUWXYZ/L

Departure

Time 2026-05-05 15:16
Airport Incheon International Airport (RKSI)

Arrival

Time 2026-05-05 15:52
Airport Yeosu Airport (RKJY)
Time Latitude Longitude Altitude Speed Heading
2026-05-05 14:59 37.46683 126.42953 0 ft 0 kts 52°
2026-05-05 15:05 37.46672 126.42936 32 ft 4 kts 52°
2026-05-05 15:05 37.46656 126.42910 17 ft 4 kts 52°
2026-05-05 15:06 37.46642 126.42883 32 ft 4 kts 75°
2026-05-05 15:06 37.46641 126.42851 32 ft 4 kts 109°
2026-05-05 15:06 37.46653 126.42822 32 ft 4 kts 133°
2026-05-05 15:06 37.46669 126.42804 31 ft 3 kts 143°
2026-05-05 15:07 37.46682 126.42792 31 ft 1 kts 143°
2026-05-05 15:09 37.46664 126.42809 21 ft 5 kts 143°
2026-05-05 15:09 37.46648 126.42824 30 ft 0 kts 143°
2026-05-05 15:09 37.46647 126.42824 30 ft 1 kts 143°
2026-05-05 15:09 37.46614 126.42854 32 ft 9 kts 144°
2026-05-05 15:10 37.46558 126.42906 30 ft 10 kts 144°
2026-05-05 15:10 37.46504 126.42954 32 ft 9 kts 147°
2026-05-05 15:10 37.46444 126.42954 32 ft 9 kts 216°
2026-05-05 15:10 37.46406 126.42891 32 ft 9 kts 234°
2026-05-05 15:11 37.46373 126.42820 30 ft 10 kts 260°
2026-05-05 15:11 37.46416 126.42747 32 ft 12 kts 325°
2026-05-05 15:11 37.46492 126.42679 30 ft 14 kts 324°
2026-05-05 15:11 37.46569 126.42611 30 ft 13 kts 324°
2026-05-05 15:12 37.46647 126.42541 32 ft 15 kts 324°
2026-05-05 15:12 37.46737 126.42461 30 ft 17 kts 324°
2026-05-05 15:12 37.46841 126.42368 30 ft 20 kts 324°
2026-05-05 15:12 37.46959 126.42264 31 ft 22 kts 324°
2026-05-05 15:13 37.47084 126.42152 32 ft 22 kts 324°
2026-05-05 15:13 37.47206 126.42043 32 ft 20 kts 325°
2026-05-05 15:13 37.47314 126.41948 30 ft 15 kts 324°
2026-05-05 15:13 37.47397 126.41868 32 ft 15 kts 308°
2026-05-05 15:14 37.47373 126.41756 32 ft 13 kts 234°
2026-05-05 15:14 37.47358 126.41729 32 ft 0 kts 234°
2026-05-05 15:14 37.47356 126.41725 32 ft 1 kts 234°
2026-05-05 15:15 37.47340 126.41698 32 ft 8 kts 234°
2026-05-05 15:15 37.47293 126.41615 32 ft 15 kts 230°
2026-05-05 15:15 37.47188 126.41640 31 ft 25 kts 144°
2026-05-05 15:15 37.46813 126.41974 31 ft 110 kts 144°
2026-05-05 15:16 37.45998 126.42696 242 ft 163 kts 145°
2026-05-05 15:16 37.45136 126.43460 1510 ft 136 kts 144°
2026-05-05 15:16 37.44386 126.44153 2460 ft 134 kts 144°
2026-05-05 15:16 37.43491 126.44813 2925 ft 166 kts 151°
2026-05-05 15:17 37.42393 126.45604 3327 ft 200 kts 151°
2026-05-05 15:17 37.41104 126.46552 3707 ft 227 kts 152°
2026-05-05 15:17 37.39674 126.47611 4173 ft 251 kts 152°
2026-05-05 15:17 37.38087 126.48656 4853 ft 259 kts 163°
2026-05-05 15:18 37.36352 126.49290 5945 ft 262 kts 168°
2026-05-05 15:18 37.34574 126.49849 7088 ft 264 kts 168°
2026-05-05 15:18 37.32781 126.50423 8145 ft 268 kts 167°
2026-05-05 15:18 37.30958 126.51025 9152 ft 273 kts 167°
2026-05-05 15:19 37.29127 126.51638 9726 ft 277 kts 166°
2026-05-05 15:19 37.27258 126.52291 10146 ft 283 kts 164°
2026-05-05 15:19 37.25275 126.53085 10417 ft 315 kts 163°
2026-05-05 15:19 37.23103 126.53988 10648 ft 344 kts 163°
2026-05-05 15:20 37.20770 126.54963 11175 ft 360 kts 163°
2026-05-05 15:20 37.18373 126.55960 11975 ft 366 kts 163°
2026-05-05 15:20 37.15935 126.56968 12626 ft 371 kts 163°
2026-05-05 15:20 37.13465 126.57983 12964 ft 376 kts 163°
2026-05-05 15:21 37.10974 126.59003 12990 ft 377 kts 163°
2026-05-05 15:21 37.08482 126.60023 12997 ft 376 kts 163°
2026-05-05 15:21 37.05969 126.61050 13341 ft 382 kts 163°
2026-05-05 15:21 37.03430 126.62070 14190 ft 384 kts 165°
2026-05-05 15:22 37.00783 126.62483 14997 ft 385 kts 180°
2026-05-05 15:22 36.98086 126.62446 15732 ft 390 kts 181°
2026-05-05 15:22 36.95352 126.62416 16420 ft 395 kts 180°
2026-05-05 15:22 36.92590 126.62422 17165 ft 398 kts 180°
2026-05-05 15:23 36.89809 126.62450 17886 ft 401 kts 180°
2026-05-05 15:23 36.87004 126.62448 18536 ft 406 kts 181°
2026-05-05 15:23 36.84205 126.62301 19158 ft 410 kts 183°
2026-05-05 15:23 36.81339 126.62097 19779 ft 414 kts 183°
2026-05-05 15:24 36.78446 126.61904 20402 ft 418 kts 183°
2026-05-05 15:24 36.75530 126.61731 20985 ft 422 kts 183°
2026-05-05 15:24 36.72584 126.61811 21497 ft 427 kts 171°
2026-05-05 15:24 36.69693 126.62718 22106 ft 430 kts 165°
2026-05-05 15:25 36.66808 126.63745 22691 ft 432 kts 164°
2026-05-05 15:25 36.63907 126.64781 23227 ft 436 kts 164°
2026-05-05 15:25 36.60971 126.65809 23742 ft 439 kts 165°
2026-05-05 15:25 36.58010 126.66824 24270 ft 442 kts 165°
2026-05-05 15:26 36.55033 126.67829 24796 ft 444 kts 165°
2026-05-05 15:26 36.52038 126.68832 25071 ft 448 kts 166°
2026-05-05 15:26 36.48985 126.69851 25072 ft 457 kts 166°
2026-05-05 15:26 36.45890 126.70883 25084 ft 463 kts 166°
2026-05-05 15:27 36.42769 126.71926 25078 ft 462 kts 166°
2026-05-05 15:27 36.39710 126.72947 25073 ft 461 kts 166°
2026-05-05 15:27 36.36606 126.73986 25075 ft 461 kts 165°
2026-05-05 15:27 36.33507 126.75031 25079 ft 461 kts 165°
2026-05-05 15:28 36.30410 126.76077 25080 ft 461 kts 165°
2026-05-05 15:28 36.27317 126.77123 25076 ft 461 kts 165°
2026-05-05 15:28 36.24221 126.78167 25076 ft 461 kts 165°
2026-05-05 15:28 36.21125 126.79209 25078 ft 461 kts 165°
2026-05-05 15:29 36.18030 126.80243 25076 ft 461 kts 167°
2026-05-05 15:29 36.14876 126.80922 25073 ft 460 kts 175°
2026-05-05 15:29 36.11686 126.81000 25069 ft 459 kts 185°
2026-05-05 15:29 36.08510 126.80628 25077 ft 458 kts 186°
2026-05-05 15:30 36.05338 126.80215 25070 ft 458 kts 186°
2026-05-05 15:30 36.02159 126.79821 25072 ft 458 kts 186°
2026-05-05 15:30 35.98982 126.79460 25075 ft 458 kts 186°
2026-05-05 15:30 35.95806 126.79118 25078 ft 458 kts 185°
2026-05-05 15:31 35.92620 126.79057 25067 ft 459 kts 175°
2026-05-05 15:31 35.89472 126.79731 25081 ft 460 kts 166°
2026-05-05 15:31 35.86487 126.81015 25071 ft 461 kts 156°
2026-05-05 15:31 35.83658 126.82883 25085 ft 461 kts 151°
2026-05-05 15:32 35.80869 126.84850 25073 ft 462 kts 150°
2026-05-05 15:32 35.78090 126.86828 25073 ft 462 kts 150°
2026-05-05 15:32 35.75298 126.88804 25074 ft 462 kts 151°
2026-05-05 15:32 35.72506 126.90759 25076 ft 462 kts 151°
2026-05-05 15:33 35.69708 126.92702 25076 ft 462 kts 151°
2026-05-05 15:33 35.66900 126.94637 25076 ft 462 kts 151°
2026-05-05 15:33 35.64097 126.96562 25076 ft 462 kts 152°
2026-05-05 15:33 35.61286 126.98488 25076 ft 462 kts 152°
2026-05-05 15:34 35.58476 127.00412 25075 ft 462 kts 152°
2026-05-05 15:34 35.55663 127.02337 24988 ft 462 kts 152°
2026-05-05 15:34 35.52868 127.04248 23897 ft 469 kts 151°
2026-05-05 15:34 35.50044 127.06179 23129 ft 459 kts 151°
2026-05-05 15:35 35.47269 127.08075 22265 ft 453 kts 151°
2026-05-05 15:35 35.44539 127.09939 21415 ft 447 kts 151°
2026-05-05 15:35 35.41839 127.11781 20588 ft 441 kts 151°
2026-05-05 15:35 35.39171 127.13600 19738 ft 436 kts 151°
2026-05-05 15:36 35.36538 127.15393 18929 ft 430 kts 151°
2026-05-05 15:36 35.33934 127.17165 18110 ft 425 kts 151°
2026-05-05 15:36 35.31362 127.18914 17302 ft 420 kts 151°
2026-05-05 15:36 35.28819 127.20643 16503 ft 416 kts 151°
2026-05-05 15:37 35.26302 127.22352 15712 ft 412 kts 151°
2026-05-05 15:37 35.23810 127.24044 14912 ft 408 kts 151°
2026-05-05 15:37 35.21339 127.25720 14162 ft 403 kts 152°
2026-05-05 15:37 35.18900 127.27374 13396 ft 400 kts 152°
2026-05-05 15:38 35.16512 127.28991 12651 ft 395 kts 152°
2026-05-05 15:38 35.14114 127.30613 11903 ft 391 kts 152°
2026-05-05 15:38 35.11726 127.32161 11181 ft 385 kts 155°
2026-05-05 15:38 35.09318 127.33445 10913 ft 368 kts 159°
2026-05-05 15:39 35.07004 127.34583 10728 ft 350 kts 160°
2026-05-05 15:39 35.04795 127.35659 10564 ft 334 kts 159°
2026-05-05 15:39 35.02693 127.36698 10431 ft 319 kts 159°
2026-05-05 15:39 35.00680 127.37707 10292 ft 306 kts 159°
2026-05-05 15:40 34.98751 127.38683 10167 ft 294 kts 159°
2026-05-05 15:40 34.96895 127.39627 10047 ft 284 kts 159°
2026-05-05 15:40 34.95104 127.40540 9818 ft 277 kts 159°
2026-05-05 15:40 34.93926 127.41140 9612 ft 276 kts 159°
2026-05-05 15:41 34.91573 127.42339 9204 ft 273 kts 159°
2026-05-05 15:41 34.89829 127.43227 8977 ft 267 kts 159°
2026-05-05 15:41 34.88702 127.43801 8914 ft 263 kts 159°
2026-05-05 15:41 34.87022 127.44655 8799 ft 262 kts 159°
2026-05-05 15:42 34.85340 127.45509 8694 ft 262 kts 159°
2026-05-05 15:42 34.83653 127.46366 8565 ft 262 kts 159°
2026-05-05 15:42 34.81418 127.47502 8437 ft 263 kts 159°
2026-05-05 15:42 34.80273 127.48083 8369 ft 264 kts 159°
2026-05-05 15:43 34.78571 127.48947 8262 ft 265 kts 159°
2026-05-05 15:43 34.76866 127.49811 8154 ft 266 kts 159°
2026-05-05 15:43 34.75157 127.50677 8044 ft 266 kts 159°
2026-05-05 15:43 34.73454 127.51540 7743 ft 272 kts 159°
2026-05-05 15:44 34.71732 127.52415 7378 ft 264 kts 159°
2026-05-05 15:44 34.70060 127.53264 7027 ft 257 kts 159°
2026-05-05 15:44 34.68419 127.54096 6690 ft 255 kts 159°
2026-05-05 15:44 34.66781 127.54926 6352 ft 255 kts 159°
2026-05-05 15:45 34.65120 127.55766 6008 ft 260 kts 159°
2026-05-05 15:45 34.63468 127.56602 5639 ft 255 kts 158°
2026-05-05 15:45 34.61932 127.57616 5272 ft 252 kts 139°
2026-05-05 15:45 34.60961 127.59360 4988 ft 253 kts 110°
2026-05-05 15:46 34.60767 127.61469 4820 ft 251 kts 84°
2026-05-05 15:46 34.61234 127.63450 4636 ft 239 kts 69°
2026-05-05 15:46 34.61862 127.65255 4475 ft 232 kts 68°
2026-05-05 15:46 34.62498 127.67036 4318 ft 229 kts 68°
2026-05-05 15:47 34.63138 127.68792 4184 ft 225 kts 62°
2026-05-05 15:47 34.64252 127.70058 3998 ft 220 kts 21°
2026-05-05 15:47 34.65731 127.70169 3735 ft 211 kts 349°
2026-05-05 15:47 34.67140 127.69798 3442 ft 204 kts 343°
2026-05-05 15:48 34.68496 127.69354 3136 ft 199 kts 341°
2026-05-05 15:48 34.69781 127.68808 2856 ft 192 kts 336°
2026-05-05 15:48 34.71005 127.68219 2600 ft 186 kts 335°
2026-05-05 15:48 34.72180 127.67642 2355 ft 176 kts 336°
2026-05-05 15:49 34.73280 127.67101 2181 ft 165 kts 337°
2026-05-05 15:49 34.74339 127.66582 1956 ft 159 kts 337°
2026-05-05 15:49 34.75321 127.66101 1761 ft 144 kts 338°
2026-05-05 15:49 34.76225 127.65658 1725 ft 139 kts 338°
2026-05-05 15:50 34.77103 127.65227 1707 ft 137 kts 338°
2026-05-05 15:50 34.77987 127.64797 1701 ft 136 kts 339°
2026-05-05 15:50 34.78877 127.64361 1468 ft 138 kts 339°
2026-05-05 15:50 34.79760 127.63924 1111 ft 137 kts 338°
2026-05-05 15:51 34.80643 127.63476 741 ft 138 kts 338°
2026-05-05 15:51 34.81541 127.63072 476 ft 137 kts 341°
2026-05-05 15:51 34.82418 127.62628 296 ft 137 kts 334°
2026-05-05 15:51 34.83289 127.62178 109 ft 134 kts 339°
2026-05-05 15:52 34.84076 127.61800 91 ft 103 kts 338°
2026-05-05 15:52 34.84599 127.61545 89 ft 59 kts 338°
2026-05-05 15:52 34.84921 127.61389 55 ft 47 kts 338°
2026-05-05 15:52 34.85077 127.61279 41 ft 6 kts
2026-05-05 15:53 34.85094 127.61328 41 ft 9 kts 105°
2026-05-05 15:53 34.85060 127.61353 45 ft 6 kts 169°
2026-05-05 15:53 34.85012 127.61354 49 ft 10 kts 180°
2026-05-05 15:53 34.84940 127.61379 54 ft 13 kts 159°
2026-05-05 15:54 34.84840 127.61427 62 ft 18 kts 159°
2026-05-05 15:54 34.84708 127.61490 75 ft 23 kts 158°
2026-05-05 15:54 34.84593 127.61504 86 ft 15 kts 224°
2026-05-05 15:54 34.84550 127.61393 86 ft 14 kts 247°
2026-05-05 15:55 34.84471 127.61354 90 ft 14 kts 159°
2026-05-05 15:55 34.84383 127.61398 93 ft 14 kts 158°
2026-05-05 15:55 34.84283 127.61447 98 ft 17 kts 158°
2026-05-05 15:55 34.84181 127.61496 95 ft 14 kts 157°
2026-05-05 15:56 34.84131 127.61457 95 ft 9 kts 277°
2026-05-05 15:56 34.84148 127.61408 96 ft 2 kts 294°